#timestamp,LO_Frequency,Hit,StdDev 
1565344815.0,286047000.1,N
1565344815.9,286047000.1,N
1565344835.8,286046999.7,N
1565344855.6,286047000.3,N
1565344875.4,286047000.1,N
1565344895.3,286046999.8,N
1565344915.1,286047002.1,N
1565344935.9,286047002.6,N
1565344955.7,286047002.3,N
1565344975.5,286047001.9,N
1565344995.4,286047002.5,N
1565345015.2,286047000.2,N
1565345035.0,286047000.1,N
1565345035.9,286047000.1,N
1565345055.8,286047002.5,N
1565345075.6,286047000.5,N
1565345095.5,286047000.4,N
1565345115.3,286047002.5,N
1565345135.1,286047002.5,N
1565345155.9,286047000.1,N
1565345175.7,286047002.2,N
1565345195.5,286047001.8,N
1565345215.4,286047001.6,N
1565345235.2,286047002.2,N
1565345255.1,286047002.7,N
1565345256.0,286047002.7,N
1565345275.8,286047001.6,N
1565345295.6,286047001.8,N
1565345315.5,286047003.9,Y
1565345335.3,286047002.5,P
1565345355.2,286047000.0,N
1565345375.0,286047000.1,N
1565345375.9,286047000.1,N
1565345395.7,286047000.0,N
1565345415.6,286047000.0,N
1565345435.4,286046999.8,N
1565345455.3,286047002.0,N
1565345475.1,286047000.2,N
1565345495.8,286047000.5,N
1565345515.7,286047000.0,N
1565345535.5,286047001.8,N
1565345555.4,286047001.5,N
1565345575.2,286047001.8,N
1565345595.0,286047001.9,N
1565345595.9,286047001.9,N
1565345615.8,286047001.4,N
1565345635.6,286047002.5,N
1565345655.5,286047000.0,N
1565345675.3,286047002.5,N
1565345695.1,286047002.6,N
1565345715.9,286047001.9,N
1565345735.7,286047002.0,N
1565345755.6,286047002.7,N
1565345775.4,286047000.6,N
1565345795.2,286047000.0,N
1565345815.1,286047000.0,N
1565345816.0,286047000.0,N
1565345835.8,286047000.9,N
1565345855.6,286047000.4,N
1565345875.5,286047000.8,N
1565345895.3,286047001.0,N
1565345915.2,286047000.4,N
1565345935.9,286047000.7,N
1565345955.7,286047000.5,N
1565345975.6,286047000.0,N
1565345995.4,286047000.3,N
1565346015.2,286047000.3,N
1565346035.1,286047001.1,N
1565346036.0,286047001.1,N
1565346055.8,286047000.6,N
1565346075.7,286047000.3,N
1565346095.5,286047000.3,N
1565346115.3,286047002.3,N
1565346135.2,286047000.1,N
1565346155.0,286047000.2,N
1565346155.9,286047000.2,N
1565346175.8,286047000.5,N
1565346195.6,286047000.4,N
1565346215.4,286047000.7,N
1565346235.3,286046998.1,N
1565346255.1,286046998.7,N
1565346275.9,286046998.6,N
1565346295.7,286047000.8,N
1565346315.5,286047001.2,N
1565346335.4,286046998.4,N
1565346355.2,286046999.3,N
1565346375.1,286046998.6,N
1565346376.0,286046998.6,N
1565346395.8,286046998.9,N
1565346415.6,286046998.4,N
1565346435.5,286046999.2,N
1565346455.3,286046998.9,N
1565346475.2,286046996.8,Y
1565346495.9,286046999.6,P
1565346515.7,286046996.6,P
1565346535.6,286046999.6,N
1565346555.4,286046999.6,N
1565346575.3,286046996.7,N
1565346595.1,286046997.6,N
1565346596.0,286046997.6,N
1565346615.8,286046997.4,N
1565346635.7,286046997.7,N
1565346655.5,286046997.5,N
1565346675.3,286046997.2,N
1565346695.2,286046996.7,N
1565346715.0,286046997.2,N
1565346715.9,286046997.2,N
1565346735.8,286046997.0,N
1565346755.6,286046997.8,N
1565346775.4,286046996.9,N
1565346795.3,286046996.8,N
1565346815.1,286046997.2,N
1565346835.9,286046997.2,N
1565346855.7,286046997.8,N
1565346875.5,286046997.5,N
1565346895.4,286046996.8,Y
1565346915.2,286046998.6,P
1565346935.1,286047000.9,N
1565346936.0,286047000.9,N
1565346955.8,286047000.5,N
1565346975.6,286047000.7,N
1565346995.5,286047001.0,N
1565347015.3,286047000.7,N
1565347035.1,286047001.0,N
1565347055.9,286047002.1,N
1565347075.7,286046999.9,N
1565347095.6,286046999.9,N
1565347115.4,286047000.6,N
1565347135.2,286047000.5,N
1565347155.1,286047000.0,N
1565347156.0,286047000.0,N
1565347175.8,286047000.5,N
1565347195.7,286047002.3,N
1565347215.5,286047001.4,N
1565347235.3,286047001.3,N
1565347255.2,286047001.3,N
1565347275.0,286047002.5,N
1565347275.9,286047002.5,N
1565347295.8,286047002.1,N
1565347315.6,286047002.5,N
1565347335.4,286047002.2,N
1565347355.3,286047002.5,N
1565347375.1,286047002.8,N
1565347395.8,286047002.7,N
1565347415.7,286047000.4,N
1565347435.5,286047000.0,N
1565347455.4,286047002.6,N
1565347475.2,286047000.1,N
1565347495.0,286047000.9,N
1565347495.9,286047000.9,N
1565347515.8,286047001.0,N
1565347535.6,286047001.2,N
1565347555.5,286047000.6,N
1565347575.3,286047001.0,N
1565347595.1,286047000.8,N
1565347615.9,286046999.9,N
1565347635.7,286047000.3,N
1565347655.5,286047000.0,N
1565347675.4,286047002.5,N
1565347695.2,286047002.8,N
1565347715.1,286047000.0,N
1565347716.0,286047000.0,N
1565347735.8,286047000.6,N
1565347755.6,286047000.9,N
1565347775.5,286047000.4,N
1565347795.3,286047000.6,N
1565347815.2,286046999.9,N
1565347835.9,286047000.0,N
1565347855.7,286046999.8,N
1565347875.6,286047000.0,N
1565347895.4,286047002.3,N
1565347915.3,286046999.7,N
1565347935.1,286046999.8,N
1565347936.0,286046999.8,N
1565347955.8,286047000.4,N
1565347975.7,286046999.8,N
1565347995.5,286047002.6,N
1565348015.3,286047001.6,N
1565348035.2,286047001.9,N
1565348055.0,286047001.9,N
1565348055.9,286047001.9,N
1565348075.8,286047002.1,N
1565348095.6,286047002.7,N
1565348115.4,286047000.9,N
1565348135.3,286047002.8,N
1565348155.1,286047002.2,N
1565348175.9,286047004.4,Y
1565348195.7,286046999.9,P
1565348215.5,286046999.9,N
1565348235.4,286047000.0,N
1565348255.2,286046999.9,N
1565348275.1,286047002.8,Y
1565348276.0,286047002.8,P
1565348295.8,286047002.1,N
1565348315.6,286047002.7,N
1565348335.5,286047000.3,N
1565348355.3,286047000.2,N
1565348375.1,286047002.6,N
1565348395.9,286047000.2,N
